Stations météo

réclame
Mon MeteoGroup
Le Luc, France (7675): Température de l'air & dewpoint: 17.01.2019 08:00:00 - 23.01.2019 08:00:00 (CET)Le Luc, France (7675): Température de l'air 5cm: 17.01.2019 08:00:00 - 23.01.2019 08:00:00 (CET)Le Luc, France (7675): Vitesse du vent & gusts: 17.01.2019 08:00:00 - 23.01.2019 08:00:00 (CET)Le Luc, France (7675): Direction du vent: 17.01.2019 08:00:00 - 23.01.2019 08:00:00 (CET)Le Luc, France (7675): reduced air pressure: 17.01.2019 08:00:00 - 23.01.2019 08:00:00 (CET)Le Luc, France (7675): visibility: 17.01.2019 08:00:00 - 23.01.2019 08:00:00 (CET)Le Luc, France (7675): Ensoleillement: 17.01.2019 08:00:00 - 23.01.2019 08:00:00 (CET)Le Luc, France (7675): Quantités de précipitations: 17.01.2019 08:00:00 - 23.01.2019 08:00:00 (CET)
Date & Time tt [°C] td [°C] tt 5cm [°C] ff [km/h] ff [knt] fx [km/h] fx [knt] dd ppp [hPa] vv [km] sd [min] rr [mm]
23.01.2019 08:00:00 2,4 -3,1 -0,5 19 10 29 16 W 997,2 20 0 0,0
23.01.2019 07:00:00 1,0 -3,7 -0,3 8 4 26 14 SSW 997,8 20 0 0,0
23.01.2019 06:00:00 1,9 -3,2 0,1 8 4 13 7 WSW 997,9 35 0 0,0
23.01.2019 05:00:00 2,4 -3,7 1,6 3 2 16 9 W 998,4 39 0 0,0
23.01.2019 04:00:00 2,5 -4,3 0,8 11 6 18 10 WSW 998,6 40 0 0,0
23.01.2019 03:00:00 1,9 -4,2 0,2 11 6 19 11 SW 999,4 40 0 0,0
23.01.2019 02:00:00 1,4 -4,1 -0,6 8 5 17 9 S 999,9 40 0 0,0
23.01.2019 01:00:00 0,8 -4,4 -0,7 10 5 21 11 SSW 1000,6 36 0 0,0
23.01.2019 00:00:00 2,4 -4,1 -0,5 11 6 24 13 WSW 1001,7 30 0 0,0
22.01.2019 23:00:00 2,1 -3,8 0,1 10 5 26 14 SW 1002,4 20 0 0,0
22.01.2019 22:00:00 3,0 -2,7 0,1 12 6 18 10 W 1003,0 19 0 0,0
22.01.2019 21:00:00 3,4 -2,2 1,3 10 5 17 9 WSW 1003,5 18 0 0,0
22.01.2019 20:00:00 3,8 -1,6 1,9 3 2 26 14 SE 1003,8 18 0 0,0
22.01.2019 19:00:00 5,7 -1,7 4,3 18 10 32 18 W 1003,8 20 0 0,0
22.01.2019 18:00:00 6,8 1,1 4,2 7 4 14 8 W 1003,5 44 0 0,0
22.01.2019 17:00:00 9,8 0,7 8,5 9 5 15 8 WSW 1003,4 41 58 0,0
22.01.2019 16:00:00 11,3 0,4 14,4 9 5 18 10 SW 1003,8 50 60 0,0
22.01.2019 15:00:00 11,7 -2,9 17,2 9 5 16 8 W 1004,4 50 60 0,0
22.01.2019 14:00:00 11,3 -0,8 16,2 6 4 12 7 WNW 1005,3 34 60 0,0
22.01.2019 13:00:00 9,7 -1,4 14,4 4 2 12 6 S 1007,0 30 60 0,0
22.01.2019 12:00:00 7,8 -2,5 9,9 4 2 13 7 WSW 1008,6 30 60 0,0
22.01.2019 11:00:00 4,4 0,9 6,3 4 2 9 5 ENE 1009,7 30 60 0,0
22.01.2019 10:00:00 1,1 -0,8 -1,1 2 1 7 4 SE 1010,4 25 60 0,0
22.01.2019 09:00:00 -2,4 -3,2 -6,8 0 0 11 6 N 1010,9 11 36 0,0
22.01.2019 08:00:00 -4,4 -5,1 -7,2 0 0 4 2 N 1010,9 50 0 0,0
22.01.2019 07:00:00 -3,6 -4,3 -6,7 0 0 4 2 N 1011,0 50 0 0,0
22.01.2019 06:00:00 -3,4 -3,9 -6,6 0 0 3 2 N 1011,3 15 0 0,0
22.01.2019 05:00:00 -2,5 -2,9 -5,8 0 0 4 2 N 1011,8 13 0 0,0
22.01.2019 04:00:00 -2,6 -3,0 -5,8 0 0 5 3 N 1012,1 12 0 0,0
22.01.2019 03:00:00 -1,8 -2,2 -4,9 0 0 4 2 N 1013,0 11 0 0,0
22.01.2019 02:00:00 -1,9 -2,6 -4,6 0 0 5 3 N 1013,4 10 0 0,0
22.01.2019 01:00:00 -0,9 -1,3 -3,8 0 0 5 3 N 1013,9 10 0 0,0
22.01.2019 00:00:00 -0,7 -1,4 -3,5 0 0 5 3 N 1014,1 10 0 0,0
21.01.2019 23:00:00 0,9 0,0 -2,0 0 0 7 4 N 1013,9 15 0 0,0
21.01.2019 22:00:00 0,7 -0,3 -1,5 3 1 7 4 N 1014,1 13 0 0,0
21.01.2019 21:00:00 2,6 0,2 0,2 3 2 14 8 ENE 1013,8 18 0 0,0
21.01.2019 20:00:00 5,3 2,6 1,9 8 4 15 8 WSW 1013,8 36 0 0,0
21.01.2019 19:00:00 5,0 2,5 2,3 2 1 5 3 W 1013,5 50 0 0,0
21.01.2019 18:00:00 7,3 2,8 3,5 0 0 8 4 N 1013,3 10 6 0,0
21.01.2019 17:00:00 9,7 3,2 9,1 6 3 14 7 SSE 1013,1 50 40 0,0
21.01.2019 16:00:00 11,6 3,6 15,7 5 3 12 6 SE 1013,0 44 60 0,0
21.01.2019 15:00:00 11,7 2,9 16,9 4 2 8 5 ESE 1013,1 50 60 0,0
21.01.2019 14:00:00 11,1 3,1 16,6 2 1 6 3 SE 1013,5 35 60 0,2
21.01.2019 13:00:00 9,7 3,0 14,0 0 0 4 2 N 1014,4 35 60 0,0
21.01.2019 12:00:00 6,5 3,5 8,0 3 1 8 4 SE 1015,2 20 60 0,0
21.01.2019 11:00:00 3,3 1,8 7,2 4 2 6 4 SE 1015,8 15 60 0,0
21.01.2019 10:00:00 1,0 0,6 -0,3 0 0 18 10 N 1015,5 15 60 0,0
21.01.2019 09:00:00 -1,5 -1,6 -4,2 0 0 3 2 N 1015,4 1,1 28 0,0
21.01.2019 08:00:00 -2,0 -2,3 -4,9 0 0 3 2 N 1015,2 0,8 0 0,0
21.01.2019 07:00:00 -1,9 -2,2 -4,0 0 0 3 2 N 1014,9 6 0 0,0
21.01.2019 06:00:00 -1,2 -1,3 -3,7 0 0 10 5 N 1014,6 0,9 0 0,0
21.01.2019 05:00:00 -1,1 -1,4 -3,6 0 0 2 1 N 1014,6 0,6 0 0,0
21.01.2019 04:00:00 -0,9 -1,3 -3,3 0 0 3 2 N 1014,6 0,5 0 0,0
21.01.2019 03:00:00 0,3 0,0 -1,6 0 0 4 2 N 1014,9 4,4 0 0,0
21.01.2019 02:00:00 0,9 0,6 -0,2 0 0 7 4 N 1014,8 4,4 0 0,0
21.01.2019 01:00:00 1,5 1,2 -0,5 3 1 4 2 NW 1014,7 5 0 0,0
21.01.2019 00:00:00 2,4 2,1 -0,1 2 1 5 3 W 1014,6 0,2 0 0,0
20.01.2019 23:00:00 2,9 2,5 -0,5 0 0 3 2 N 1014,4 1,4 0 0,0
20.01.2019 22:00:00 4,3 3,9 1,9 0 0 3 1 N 1014,1 11 0 0,0
20.01.2019 21:00:00 5,2 4,5 3,7 0 0 3 1 N 1014,0 20 0 0,0
20.01.2019 20:00:00 5,8 4,8 4,6 0 0 4 2 N 1013,7 30 0 0,0
20.01.2019 19:00:00 6,4 5,2 5,0 0 0 4 2 N 1013,3 20 0 0,0
20.01.2019 18:00:00 7,3 5,3 5,8 0 0 9 5 N 1012,9 42 0 0,0
20.01.2019 17:00:00 8,8 4,4 8,2 8 4 15 8 ENE 1012,5 49 9 0,0
20.01.2019 16:00:00 9,9 5,9 11,1 6 3 10 5 NE 1012,1 36 25 0,0
20.01.2019 15:00:00 9,6 6,3 10,9 2 1 8 5 SE 1012,0 33 2 0,0
20.01.2019 14:00:00 9,1 5,8 10,7 5 3 7 4 NNE 1012,3 31 16 0,0
20.01.2019 13:00:00 7,5 6,3 8,0 3 1 6 3 ESE 1012,9 20 16 0,0
20.01.2019 12:00:00 5,7 5,3 7,1 0 0 4 2 N 1013,6 17 26 0,0
20.01.2019 11:00:00 3,9 3,9 4,1 3 2 7 4 NW 1013,8 4,8 6 0,0
20.01.2019 10:00:00 2,7 2,7 2,3 0 0 4 2 N 1013,5 0,4 0 0,0
20.01.2019 09:00:00 1,9 1,8 0,5 2 1 5 3 WNW 1013,3 0,2 0 0,0
20.01.2019 08:00:00 1,7 1,6 0,0 5 3 6 4 W 1013,2 1,9 0 0,0
20.01.2019 07:00:00 2,5 2,4 1,2 0 0 6 4 N 1012,6 10 0 0,0
20.01.2019 06:00:00 2,9 2,9 2,4 4 2 5 3 NNE 1012,6 0,4 0 0,0
20.01.2019 05:00:00 2,7 2,6 2,2 0 0 6 3 N 1013,0 1,6 0 0,0
20.01.2019 04:00:00 2,6 2,5 1,6 2 1 5 3 SW 1013,2 2,5 0 0,0
20.01.2019 03:00:00 2,3 2,2 1,6 0 0 5 3 N 1013,5 2,3 0 0,0
20.01.2019 02:00:00 2,6 2,5 1,7 0 0 4 2 N 1013,5 2,5 0 0,0
20.01.2019 01:00:00 2,2 2,1 1,2 2 1 5 3 W 1013,7 0,3 0 0,0
20.01.2019 00:00:00 2,7 2,4 0,9 0 0 6 3 N 1013,9 0,1 0 0,0
19.01.2019 23:00:00 4,2 3,9 2,1 3 2 6 3 WSW 1013,8 0,6 0 0,0
19.01.2019 22:00:00 5,1 4,8 4,3 4 2 4 2 WSW 1013,8 3,2 0 0,0
19.01.2019 21:00:00 5,5 5,2 4,8 0 0 7 4 N 1013,8 6 0 0,2
19.01.2019 20:00:00 5,6 5,3 4,9 0 0 6 4 N 1013,8 2,7 0 0,0
19.01.2019 19:00:00 5,9 5,5 5,2 2 1 13 7 SE 1013,8 9 0 0,8
19.01.2019 18:00:00 6,1 5,7 5,5 9 5 13 7 ENE 1013,6 2,8 0 0,6
19.01.2019 17:00:00 6,2 5,2 5,7 9 5 16 9 NE 1013,5 6 0 0,8
19.01.2019 16:00:00 7,5 5,0 7,1 11 6 23 12 E 1013,4 42 2 0,0
19.01.2019 15:00:00 7,3 5,3 5,7 4 2 11 6 E 1013,2 20 26 0,0
19.01.2019 14:00:00 5,7 4,8 5,4 11 6 14 8 NNW 1013,5 13 0 0,8
19.01.2019 13:00:00 4,9 2,9 6,6 3 2 7 4 SE 1014,6 28 11 0,0
19.01.2019 12:00:00 4,4 3,2 1,4 0 0 10 5 N 1015,2 10 19 0,0
19.01.2019 11:00:00 1,2 0,3 0,0 5 3 19 11 ESE 1015,6 19 0 0,8
19.01.2019 10:00:00 0,4 -1,0 -0,7 9 5 20 11 SE 1015,7 19 0 0,0
19.01.2019 09:00:00 -1,4 -2,1 -3,4 0 0 3 2 N 1014,9 29 6 0,0
19.01.2019 08:00:00 -1,9 -2,9 -4,0 0 0 2 1 N 1014,8 36 0 0,0
19.01.2019 07:00:00 -1,0 -2,1 -3,0 0 0 3 2 N 1014,5 38 0 0,0
19.01.2019 06:00:00 -0,9 -2,0 -1,9 0 0 3 1 N 1014,3 38 0 0,0
19.01.2019 05:00:00 -1,2 -2,3 -2,2 0 0 6 3 N 1014,7 38 0 0,0
19.01.2019 04:00:00 -1,5 -2,6 -2,8 2 1 3 2 SE 1014,9 39 0 0,0
19.01.2019 03:00:00 -0,6 -2,0 -2,3 3 2 4 2 W 1015,0 28 0 0,0
19.01.2019 02:00:00 -1,0 -2,6 -2,5 0 0 4 2 N 1015,0 49 0 0,0
19.01.2019 01:00:00 -0,5 -2,1 -2,6 0 0 4 2 N 1015,1 20 0 0,0
19.01.2019 00:00:00 -0,3 -2,4 -2,3 0 0 5 3 N 1015,4 50 0 0,0
18.01.2019 23:00:00 1,5 -1,9 -1,3 2 1 13 7 WNW 1015,1 50 0 0,0
18.01.2019 22:00:00 4,1 -2,3 2,1 10 5 16 8 WSW 1014,7 50 0 0,0
18.01.2019 21:00:00 4,4 -2,0 2,9 10 5 22 12 SW 1014,3 50 0 0,0
18.01.2019 20:00:00 5,0 -1,5 3,3 5 3 16 9 SW 1014,2 50 0 0,0
18.01.2019 19:00:00 5,6 -1,1 4,2 10 6 18 10 SW 1013,6 50 0 0,0
18.01.2019 18:00:00 6,6 -0,6 4,9 7 4 20 11 SW 1013,1 50 0 0,0
18.01.2019 17:00:00 9,1 -0,8 8,0 14 7 27 14 W 1012,6 50 8 0,0
18.01.2019 16:00:00 11,6 -1,2 12,9 12 6 19 11 W 1012,1 50 52 0,0
18.01.2019 15:00:00 11,7 -1,8 13,4 6 4 21 11 WSW 1011,9 50 45 0,0
18.01.2019 14:00:00 12,0 -1,5 15,2 11 6 23 13 W 1012,0 46 60 0,0
18.01.2019 13:00:00 11,5 -1,3 13,7 16 9 36 19 WNW 1012,3 42 60 0,0
18.01.2019 12:00:00 10,9 -1,2 13,3 16 9 29 16 NW 1012,8 43 60 0,0
18.01.2019 11:00:00 9,3 -2,7 11,7 20 11 35 19 W 1013,2 45 60 0,0
18.01.2019 10:00:00 7,9 -3,6 7,7 12 6 31 17 W 1012,7 50 60 0,0
18.01.2019 09:00:00 6,5 -4,0 4,3 13 7 35 19 WSW 1012,5 50 33 0,0
18.01.2019 08:00:00 6,0 -4,8 4,0 17 9 32 17 W 1011,6 50 0 0,0
18.01.2019 07:00:00 6,5 -4,9 4,6 13 7 53 28 W 1011,3 50 0 0,0
18.01.2019 06:00:00 6,5 -3,7 4,0 37 20 65 35 W 1010,5 50 0 0,0
18.01.2019 05:00:00 5,6 -3,2 3,4 18 10 31 17 W 1011,5 50 0 0,0
18.01.2019 04:00:00 6,1 -2,8 4,0 13 7 26 14 WSW 1012,0 50 0 0,0
18.01.2019 03:00:00 6,3 -1,8 4,6 13 7 32 18 SW 1012,0 50 0 0,0
18.01.2019 02:00:00 6,8 -0,7 5,1 16 9 37 20 WSW 1012,3 50 0 0,0
18.01.2019 01:00:00 7,4 -0,3 4,1 19 11 39 21 WSW 1012,4 50 0 0,0
18.01.2019 00:00:00 7,2 -0,1 4,7 10 6 23 12 WSW 1012,8 50 0 0,0
17.01.2019 23:00:00 7,0 1,3 4,9 9 5 21 11 W 1012,8 50 0 0,0
17.01.2019 22:00:00 8,2 2,6 6,7 19 10 36 19 W 1012,6 50 0 0,0
17.01.2019 21:00:00 8,4 4,4 7,1 23 12 34 18 W 1012,2 46 0 0,0
17.01.2019 20:00:00 9,2 5,0 7,8 17 9 31 17 W 1012,3 33 0 0,0
17.01.2019 19:00:00 9,6 6,3 7,0 13 7 22 12 W 1011,8 19 0 0,0
17.01.2019 18:00:00 9,5 6,2 7,1 4 2 23 12 SW 1012,0 27 0 0,0
17.01.2019 17:00:00 11,3 6,4 10,2 14 8 22 12 W 1012,0 30 23 0,0
17.01.2019 16:00:00 12,0 7,5 12,1 15 8 30 16 W 1012,2 18 34 0,0
17.01.2019 15:00:00 11,7 8,4 11,2 15 8 24 13 WNW 1012,5 18 43 0,0
17.01.2019 14:00:00 10,9 8,1 10,4 19 10 26 14 W 1013,0 18 0 0,0
17.01.2019 13:00:00 9,8 8,7 10,3 0 0 8 5 N 1013,7 16 0 0,0
17.01.2019 12:00:00 9,1 8,3 9,1 3 2 4 2 SSW 1014,6 17 0 0,0
17.01.2019 11:00:00 8,7 7,9 7,5 0 0 5 3 N 1015,3 12 21 0,0
17.01.2019 10:00:00 7,1 7,0 6,7 3 1 5 3 WNW 1015,2 2,4 0 0,0
17.01.2019 09:00:00 6,7 6,6 6,3 0 0 5 3 N 1015,1 1,9 0 0,8
17.01.2019 08:00:00 6,8 6,7 6,2 4 2 8 5 S 1015,3 2,3 0 1,8

tt = Température de l'air
td = dewpoint
tt 5cm = Température de l'air 5cm
ff = Vitesse du vent
fx = gusts
dd = Direction du vent
ppp = reduced air pressure
vv = visibility
sd = Ensoleillement
rr = Quantités de précipitations

stations d'obs. à proximité